QPF
0.00 0.00 0.00 0.00 0.00 0.00 0.00 0.00 0.00 0.00 0.00 0.00 0.01 0.02 0.02 0.00 0.00 0.00 0.00 0.00 0.00 0.00 0.00 0.01 0.01 0.01 0.00 0.01 0.01 0.02 0.03 0.04 0.06 0.10 0.11 0.10 0.09 0.09 0.11 0.13 0.13 0.12 0.11 0.12
0.00 0.00 0.00 0.00 0.00 0.00 0.00 0.00 0.00 0.01 0.02 0.01 0.01 0.01 0.01 0.00 0.00 0.00 0.00 0.00 0.00 0.00 0.00 0.01 0.01 0.01 0.00 0.01 0.01 0.01 0.02 0.04 0.07 0.10 0.11 0.10 0.09 0.11 0.12 0.13 0.13 0.14 0.13 0.12
0.00 0.00 0.00 0.00 0.00 0.00 0.00 0.00 0.00 0.00 0.01 0.01 0.01 0.03 0.03 0.00 0.00 0.00 0.00 0.00 0.00 0.00 0.01 0.02 0.01 0.01 0.01 0.01 0.01 0.02 0.03 0.04 0.06 0.07 0.07 0.07 0.07 0.08 0.10 0.12 0.13 0.14 0.14 0.12
0.00 0.00 0.00 0.00 0.00 0.00 0.00 0.00 0.00 0.01 0.01 0.02 0.01 0.02 0.02 0.00 0.00 0.01 0.01 0.01 0.01 0.01 0.01 0.02 0.02 0.02 0.01 0.01 0.02 0.02 0.03 0.04 0.05 0.06 0.06 0.07 0.08 0.08 0.09 0.13 0.16 0.16 0.15 0.15
0.00 0.00 0.00 0.00 0.00 0.00 0.00 0.00 0.01 0.02 0.03 0.02 0.02 0.02 0.01 0.01 0.00 0.01 0.01 0.01 0.01 0.01 0.01 0.02 0.02 0.02 0.02 0.02 0.02 0.02 0.02 0.03 0.04 0.06 0.06 0.07 0.07 0.08 0.10 0.13 0.15 0.17 0.16 0.15
0.00 0.00 0.01 0.01 0.00 0.00 0.00 0.01 0.00 0.02 0.05 0.02 0.01 0.03 0.04 0.01 0.00 0.01 0.01 0.01 0.01 0.01 0.02 0.03 0.03 0.03 0.03 0.03 0.03 0.03 0.03 0.03 0.04 0.06 0.07 0.08 0.08 0.08 0.09 0.11 0.13 0.14 0.14 0.14
0.00 0.00 0.02 0.02 0.01 0.00 0.01 0.02 0.00 0.01 0.03 0.04 0.03 0.05 0.03 0.01 0.01 0.01 0.01 0.01 0.01 0.02 0.02 0.03 0.03 0.03 0.03 0.03 0.03 0.04 0.03 0.04 0.05 0.06 0.07 0.11 0.12 0.10 0.10 0.10 0.10 0.11 0.10 0.11
0.00 0.01 0.03 0.02 0.01 0.02 0.03 0.01 0.01 0.01 0.03 0.05 0.03 0.03 0.01 0.00 0.00 0.01 0.01 0.01 0.02 0.02 0.02 0.02 0.02 0.03 0.02 0.03 0.04 0.04 0.04 0.04 0.05 0.05 0.05 0.06 0.10 0.10 0.11 0.11 0.10 0.10 0.10 0.10
0.02 0.03 0.03 0.02 0.01 0.01 0.01 0.02 0.01 0.01 0.02 0.03 0.01 0.01 0.00 0.00 0.00 0.00 0.01 0.01 0.02 0.02 0.02 0.02 0.03 0.04 0.04 0.04 0.05 0.05 0.06 0.06 0.05 0.05 0.06 0.07 0.07 0.09 0.11 0.11 0.11 0.09 0.09 0.08
0.02 0.03 0.02 0.01 0.00 0.01 0.01 0.02 0.01 0.01 0.01 0.01 0.01 0.00 0.00 0.00 0.00 0.00 0.01 0.01 0.02 0.02 0.02 0.02 0.03 0.03 0.04 0.04 0.06 0.06 0.06 0.06 0.07 0.08 0.08 0.08 0.09 0.09 0.12 0.14 0.15 0.13 0.12 0.09
0.04 0.04 0.02 0.02 0.01 0.01 0.01 0.01 0.01 0.00 0.00 0.00 0.00 0.00 0.00 0.00 0.00 0.01 0.01 0.01 0.02 0.03 0.03 0.03 0.03 0.03 0.03 0.03 0.03 0.04 0.05 0.06 0.08 0.09 0.09 0.09 0.10 0.11 0.14 0.17 0.21 0.22 0.19 0.16
0.06 0.04 0.03 0.04 0.02 0.02 0.01 0.01 0.00 0.00 0.01 0.01 0.00 0.00 0.01 0.01 0.01 0.01 0.01 0.02 0.03 0.03 0.03 0.03 0.03 0.04 0.04 0.04 0.03 0.04 0.06 0.07 0.08 0.08 0.08 0.07 0.09 0.11 0.13 0.13 0.15 0.17 0.18 0.17
0.04 0.03 0.02 0.02 0.01 0.01 0.01 0.01 0.01 0.01 0.02 0.01 0.01 0.01 0.00 0.01 0.02 0.02 0.02 0.02 0.03 0.03 0.03 0.03 0.03 0.03 0.04 0.05 0.06 0.07 0.08 0.10 0.10 0.09 0.06 0.05 0.06 0.08 0.09 0.10 0.11 0.12 0.12 0.12
0.04 0.04 0.03 0.02 0.01 0.01 0.00 0.00 0.00 0.01 0.02 0.02 0.02 0.02 0.01 0.01 0.02 0.03 0.04 0.04 0.03 0.03 0.03 0.03 0.03 0.04 0.05 0.05 0.07 0.08 0.10 0.12 0.11 0.09 0.08 0.07 0.07 0.06 0.05 0.05 0.07 0.08 0.09 0.10
0.02 0.02 0.02 0.02 0.01 0.01 0.00 0.01 0.01 0.01 0.01 0.01 0.01 0.01 0.01 0.01 0.01 0.02 0.03 0.03 0.03 0.03 0.02 0.02 0.02 0.03 0.06 0.06 0.06 0.06 0.10 0.11 0.08 0.07 0.07 0.08 0.07 0.07 0.06 0.06 0.06 0.06 0.07 0.09
0.02 0.02 0.01 0.01 0.01 0.01 0.01 0.02 0.02 0.02 0.01 0.02 0.01 0.01 0.01 0.01 0.02 0.02 0.02 0.02 0.03 0.03 0.03 0.02 0.02 0.02 0.03 0.05 0.07 0.07 0.09 0.15 0.15 0.12 0.11 0.10 0.09 0.09 0.09 0.09 0.08 0.08 0.08 0.07
0.02 0.02 0.01 0.02 0.02 0.03 0.03 0.02 0.03 0.04 0.04 0.03 0.03 0.02 0.02 0.02 0.02 0.03 0.03 0.03 0.03 0.03 0.04 0.03 0.02 0.02 0.04 0.06 0.07 0.08 0.09 0.12 0.14 0.14 0.13 0.14 0.13 0.13 0.12 0.10 0.09 0.08 0.07 0.05
0.03 0.03 0.02 0.03 0.04 0.04 0.04 0.04 0.04 0.04 0.04 0.05 0.05 0.04 0.03 0.03 0.04 0.04 0.04 0.04 0.03 0.03 0.03 0.03 0.03 0.02 0.03 0.05 0.07 0.08 0.11 0.13 0.13 0.12 0.11 0.10 0.09 0.09 0.08 0.08 0.08 0.07 0.06 0.04
0.02 0.02 0.02 0.03 0.04 0.04 0.05 0.05 0.05 0.05 0.05 0.07 0.09 0.07 0.04 0.04 0.04 0.04 0.04 0.04 0.03 0.02 0.02 0.02 0.03 0.02 0.02 0.04 0.04 0.04 0.04 0.07 0.09 0.09 0.09 0.08 0.08 0.07 0.06 0.06 0.05 0.05 0.04 0.03
0.02 0.02 0.03 0.03 0.04 0.04 0.04 0.04 0.05 0.07 0.06 0.05 0.07 0.06 0.05 0.04 0.04 0.04 0.04 0.04 0.04 0.03 0.02 0.02 0.02 0.02 0.01 0.02 0.02 0.01 0.01 0.02 0.03 0.04 0.05 0.05 0.05 0.05 0.04 0.04 0.04 0.03 0.02 0.02
0.03 0.03 0.04 0.04 0.05 0.05 0.05 0.05 0.06 0.08 0.08 0.07 0.06 0.05 0.04 0.04 0.04 0.04 0.04 0.05 0.05 0.04 0.02 0.02 0.02 0.01 0.01 0.01 0.02 0.01 0.02 0.02 0.02 0.02 0.02 0.02 0.02 0.02 0.02 0.02 0.02 0.01 0.01 0.01
0.07 0.06 0.06 0.05 0.06 0.07 0.08 0.08 0.07 0.08 0.09 0.08 0.06 0.04 0.04 0.04 0.03 0.04 0.04 0.04 0.04 0.04 0.02 0.01 0.01 0.02 0.03 0.02 0.02 0.02 0.02 0.02 0.02 0.02 0.01 0.01 0.01 0.01 0.01 0.01 0.01 0.01 0.01 0.01
0.07 0.07 0.06 0.06 0.06 0.07 0.09 0.09 0.08 0.07 0.07 0.06 0.04 0.04 0.04 0.04 0.03 0.03 0.03 0.03 0.03 0.02 0.02 0.01 0.01 0.02 0.03 0.03 0.03 0.02 0.02 0.02 0.01 0.01 0.01 0.01 0.01 0.01 0.01 0.01 0.00 0.00 0.00 0.00
0.07 0.07 0.07 0.07 0.06 0.06 0.07 0.07 0.06 0.06 0.06 0.05 0.05 0.05 0.05 0.04 0.04 0.03 0.03 0.03 0.02 0.02 0.02 0.03 0.02 0.02 0.02 0.02 0.03 0.02 0.02 0.01 0.01 0.01 0.00 0.00 0.00 0.00 0.00 0.00 0.00 0.00 0.00 0.00
0.08 0.08 0.08 0.07 0.06 0.05 0.05 0.05 0.05 0.06 0.07 0.06 0.04 0.04 0.03 0.03 0.03 0.03 0.03 0.02 0.02 0.02 0.03 0.03 0.03 0.03 0.02 0.02 0.02 0.02 0.01 0.01 0.00 0.00 0.00 0.00 0.00 0.00 0.00 0.00 0.00 0.00 0.00 0.00
0.09 0.09 0.08 0.07 0.06 0.05 0.05 0.05 0.05 0.06 0.06 0.05 0.03 0.02 0.02 0.01 0.02 0.02 0.02 0.02 0.02 0.02 0.02 0.02 0.03 0.03 0.03 0.02 0.02 0.01 0.01 0.00 0.00 0.00 0.00 0.00 0.00 0.00 0.00 0.00 0.00 0.00 0.00 0.00
0.10 0.09 0.08 0.08 0.07 0.06 0.05 0.05 0.05 0.05 0.04 0.03 0.02 0.02 0.01 0.01 0.01 0.02 0.02 0.02 0.03 0.04 0.03 0.02 0.02 0.02 0.02 0.02 0.02 0.02 0.01 0.01 0.00 0.00 0.00 0.00 0.00 0.00 0.00 0.00 0.00 0.00 0.00 0.00
MSLP
1004.93 1005.15 1005.29 1005.39 1005.45 1005.49 1005.53 1005.55 1005.58 1005.59 1005.60 1005.60 1005.59 1005.60 1005.62 1005.67 1005.76 1005.91 1006.12 1006.39 1006.74 1007.16 1007.64 1008.16 1008.68 1009.20 1009.65 1010.01 1010.24 1010.32 1010.24 1010.00 1009.63 1009.17 1008.68 1008.21 1007.83 1007.57 1007.49 1007.59 1007.88 1008.35 1008.99 1009.75
1005.14 1005.26 1005.27 1005.19 1005.05 1004.90 1004.78 1004.71 1004.71 1004.78 1004.91 1005.08 1005.26 1005.45 1005.62 1005.77 1005.90 1006.04 1006.20 1006.41 1006.70 1007.07 1007.54 1008.09 1008.68 1009.29 1009.85 1010.32 1010.65 1010.80 1010.76 1010.53 1010.16 1009.68 1009.16 1008.66 1008.24 1007.97 1007.87 1007.96 1008.24 1008.71 1009.34 1010.11
1005.31 1005.37 1005.27 1005.04 1004.74 1004.43 1004.18 1004.02 1003.99 1004.10 1004.31 1004.60 1004.92 1005.25 1005.53 1005.76 1005.93 1006.07 1006.19 1006.36 1006.60 1006.95 1007.42 1008.01 1008.68 1009.39 1010.08 1010.67 1011.12 1011.38 1011.43 1011.27 1010.94 1010.50 1009.99 1009.51 1009.10 1008.84 1008.74 1008.83 1009.11 1009.57 1010.19 1010.95
1005.40 1005.40 1005.22 1004.89 1004.47 1004.05 1003.71 1003.49 1003.43 1003.54 1003.80 1004.18 1004.61 1005.04 1005.41 1005.71 1005.92 1006.07 1006.19 1006.33 1006.55 1006.89 1007.38 1008.00 1008.73 1009.53 1010.33 1011.05 1011.62 1012.00 1012.16 1012.11 1011.87 1011.51 1011.08 1010.65 1010.30 1010.08 1010.01 1010.13 1010.42 1010.87 1011.48 1012.21
1005.36 1005.31 1005.07 1004.68 1004.21 1003.73 1003.33 1003.07 1002.99 1003.12 1003.42 1003.85 1004.36 1004.87 1005.32 1005.69 1005.96 1006.14 1006.28 1006.42 1006.64 1006.98 1007.47 1008.11 1008.88 1009.73 1010.60 1011.41 1012.08 1012.57 1012.85 1012.92 1012.81 1012.56 1012.25 1011.94 1011.68 1011.55 1011.55 1011.72 1012.04 1012.51 1013.10 1013.80
1005.16 1005.07 1004.81 1004.40 1003.91 1003.42 1003.01 1002.75 1002.68 1002.82 1003.16 1003.64 1004.21 1004.79 1005.32 1005.77 1006.10 1006.34 1006.51 1006.68 1006.90 1007.24 1007.71 1008.35 1009.11 1009.97 1010.86 1011.71 1012.45 1013.02 1013.41 1013.60 1013.63 1013.53 1013.37 1013.20 1013.09 1013.08 1013.19 1013.44 1013.82 1014.31 1014.91 1015.58
1004.84 1004.71 1004.45 1004.06 1003.61 1003.15 1002.78 1002.55 1002.51 1002.68 1003.05 1003.58 1004.20 1004.85 1005.46 1005.97 1006.38 1006.68 1006.91 1007.11 1007.34 1007.66 1008.10 1008.69 1009.41 1010.23 1011.08 1011.92 1012.68 1013.31 1013.78 1014.09 1014.26 1014.33 1014.34 1014.35 1014.40 1014.54 1014.79 1015.14 1015.60 1016.14 1016.75 1017.41
1004.45 1004.31 1004.07 1003.73 1003.35 1002.97 1002.66 1002.50 1002.51 1002.73 1003.13 1003.70 1004.37 1005.07 1005.74 1006.32 1006.80 1007.17 1007.44 1007.67 1007.91 1008.20 1008.60 1009.11 1009.74 1010.47 1011.26 1012.05 1012.79 1013.44 1013.98 1014.39 1014.70 1014.93 1015.13 1015.32 1015.56 1015.87 1016.26 1016.73 1017.27 1017.87 1018.50 1019.14
1004.10 1003.96 1003.76 1003.51 1003.22 1002.94 1002.73 1002.64 1002.72 1002.98 1003.42 1004.01 1004.70 1005.44 1006.15 1006.79 1007.33 1007.75 1008.07 1008.32 1008.55 1008.81 1009.14 1009.56 1010.09 1010.72 1011.41 1012.12 1012.83 1013.48 1014.07 1014.58 1015.01 1015.40 1015.77 1016.14 1016.56 1017.02 1017.55 1018.13 1018.75 1019.40 1020.04 1020.66
1003.86 1003.76 1003.63 1003.47 1003.29 1003.12 1003.02 1003.01 1003.15 1003.44 1003.90 1004.50 1005.20 1005.95 1006.68 1007.35 1007.92 1008.37 1008.72 1008.98 1009.21 1009.43 1009.70 1010.04 1010.47 1010.98 1011.58 1012.22 1012.89 1013.54 1014.17 1014.75 1015.30 1015.83 1016.35 1016.88 1017.43 1018.03 1018.66 1019.33 1020.01 1020.68 1021.32 1021.92
1003.81 1003.76 1003.72 1003.67 1003.61 1003.55 1003.54 1003.61 1003.79 1004.11 1004.57 1005.15 1005.83 1006.55 1007.27 1007.94 1008.52 1008.99 1009.35 1009.63 1009.84 1010.04 1010.26 1010.53 1010.89 1011.33 1011.85 1012.43 1013.07 1013.72 1014.38 1015.04 1015.68 1016.31 1016.95 1017.59 1018.25 1018.93 1019.63 1020.33 1021.03 1021.69 1022.31 1022.87
1003.95 1003.99 1004.05 1004.10 1004.14 1004.18 1004.25 1004.37 1004.58 1004.90 1005.34 1005.88 1006.52 1007.20 1007.88 1008.53 1009.10 1009.57 1009.95 1010.23 1010.45 1010.64 1010.84 1011.09 1011.40 1011.79 1012.27 1012.83 1013.45 1014.12 1014.81 1015.52 1016.22 1016.93 1017.63 1018.34 1019.05 1019.76 1020.47 1021.16 1021.83 1022.46 1023.03 1023.53
1004.22 1004.35 1004.51 1004.66 1004.79 1004.91 1005.03 1005.19 1005.41 1005.72 1006.13 1006.62 1007.20 1007.83 1008.47 1009.09 1009.64 1010.12 1010.50 1010.81 1011.05 1011.26 1011.47 1011.72 1012.03 1012.41 1012.88 1013.44 1014.07 1014.75 1015.47 1016.20 1016.94 1017.68 1018.41 1019.13 1019.83 1020.52 1021.19 1021.84 1022.44 1023.00 1023.50 1023.93
1004.53 1004.75 1004.98 1005.20 1005.40 1005.58 1005.74 1005.93 1006.16 1006.46 1006.83 1007.29 1007.83 1008.41 1009.02 1009.61 1010.16 1010.64 1011.05 1011.39 1011.67 1011.92 1012.16 1012.44 1012.77 1013.18 1013.66 1014.23 1014.87 1015.56 1016.29 1017.04 1017.78 1018.51 1019.23 1019.91 1020.57 1021.20 1021.80 1022.36 1022.88 1023.36 1023.77 1024.13
1004.77 1005.05 1005.33 1005.59 1005.83 1006.05 1006.25 1006.46 1006.70 1007.01 1007.38 1007.83 1008.35 1008.92 1009.51 1010.10 1010.66 1011.17 1011.61 1011.99 1012.32 1012.62 1012.92 1013.24 1013.61 1014.04 1014.55 1015.13 1015.77 1016.46 1017.17 1017.90 1018.62 1019.32 1019.98 1020.61 1021.20 1021.75 1022.26 1022.73 1023.17 1023.55 1023.89 1024.18
1004.85 1005.15 1005.44 1005.72 1005.98 1006.21 1006.45 1006.70 1006.98 1007.32 1007.73 1008.21 1008.75 1009.35 1009.97 1010.58 1011.18 1011.72 1012.21 1012.64 1013.03 1013.38 1013.72 1014.08 1014.48 1014.93 1015.44 1016.01 1016.64 1017.30 1017.98 1018.67 1019.34 1019.98 1020.58 1021.13 1021.65 1022.12 1022.55 1022.94 1023.30 1023.62 1023.90 1024.14
1004.75 1005.01 1005.28 1005.55 1005.81 1006.07 1006.34 1006.64 1006.99 1007.41 1007.89 1008.44 1009.06 1009.72 1010.40 1011.08 1011.73 1012.32 1012.86 1013.34 1013.76 1014.15 1014.52 1014.90 1015.30 1015.74 1016.23 1016.77 1017.36 1017.97 1018.59 1019.22 1019.82 1020.39 1020.93 1021.42 1021.87 1022.28 1022.65 1022.99 1023.30 1023.59 1023.84 1024.07
1004.50 1004.69 1004.91 1005.14 1005.39 1005.67 1006.00 1006.37 1006.82 1007.34 1007.94 1008.61 1009.33 1010.09 1010.86 1011.61 1012.32 1012.97 1013.55 1014.06 1014.50 1014.90 1015.27 1015.64 1016.01 1016.42 1016.86 1017.34 1017.85 1018.39 1018.94 1019.49 1020.03 1020.54 1021.01 1021.46 1021.86 1022.24 1022.59 1022.91 1023.21 1023.49 1023.74 1023.97
1004.23 1004.32 1004.46 1004.64 1004.89 1005.20 1005.58 1006.05 1006.61 1007.27 1008.00 1008.80 1009.65 1010.52 1011.37 1012.20 1012.96 1013.65 1014.25 1014.77 1015.21 1015.59 1015.93 1016.25 1016.57 1016.91 1017.27 1017.67 1018.11 1018.56 1019.04 1019.51 1019.98 1020.44 1020.88 1021.29 1021.68 1022.05 1022.40 1022.74 1023.05 1023.35 1023.63 1023.89
1004.08 1004.07 1004.13 1004.28 1004.51 1004.85 1005.31 1005.87 1006.55 1007.33 1008.19 1009.12 1010.08 1011.04 1011.97 1012.85 1013.64 1014.34 1014.94 1015.44 1015.84 1016.18 1016.46 1016.71 1016.96 1017.22 1017.51 1017.82 1018.17 1018.54 1018.94 1019.36 1019.78 1020.20 1020.61 1021.02 1021.42 1021.80 1022.18 1022.54 1022.89 1023.22 1023.53 1023.82
1004.22 1004.12 1004.12 1004.23 1004.46 1004.84 1005.36 1006.01 1006.78 1007.66 1008.63 1009.64 1010.68 1011.69 1012.66 1013.55 1014.34 1015.02 1015.58 1016.03 1016.38 1016.65 1016.87 1017.05 1017.23 1017.41 1017.62 1017.86 1018.13 1018.44 1018.78 1019.15 1019.54 1019.94 1020.34 1020.75 1021.16 1021.57 1021.97 1022.37 1022.75 1023.11 1023.45 1023.76
1004.72 1004.57 1004.53 1004.63 1004.88 1005.29 1005.85 1006.56 1007.40 1008.34 1009.35 1010.40 1011.45 1012.47 1013.42 1014.27 1015.02 1015.64 1016.14 1016.52 1016.80 1017.01 1017.16 1017.29 1017.41 1017.53 1017.68 1017.87 1018.10 1018.36 1018.67 1019.01 1019.37 1019.76 1020.16 1020.57 1021.00 1021.42 1021.84 1022.25 1022.65 1023.03 1023.37 1023.69
1005.61 1005.45 1005.41 1005.52 1005.79 1006.23 1006.82 1007.55 1008.40 1009.35 1010.35 1011.37 1012.38 1013.33 1014.21 1014.98 1015.64 1016.17 1016.59 1016.90 1017.12 1017.27 1017.38 1017.46 1017.54 1017.64 1017.77 1017.93 1018.14 1018.38 1018.67 1018.99 1019.34 1019.72 1020.11 1020.52 1020.94 1021.37 1021.79 1022.20 1022.59 1022.96 1023.30 1023.60
1006.83 1006.70 1006.70 1006.84 1007.13 1007.58 1008.17 1008.89 1009.71 1010.60 1011.53 1012.47 1013.37 1014.21 1014.97 1015.62 1016.17 1016.60 1016.93 1017.16 1017.33 1017.44 1017.52 1017.59 1017.67 1017.78 1017.91 1018.07 1018.28 1018.53 1018.80 1019.12 1019.45 1019.81 1020.19 1020.59 1020.99 1021.39 1021.79 1022.18 1022.55 1022.89 1023.20 1023.47
1008.23 1008.17 1008.23 1008.42 1008.74 1009.19 1009.75 1010.42 1011.17 1011.97 1012.78 1013.58 1014.34 1015.03 1015.64 1016.15 1016.57 1016.90 1017.14 1017.31 1017.44 1017.54 1017.62 1017.71 1017.81 1017.94 1018.09 1018.28 1018.51 1018.76 1019.04 1019.34 1019.66 1019.99 1020.34 1020.70 1021.07 1021.43 1021.79 1022.15 1022.48 1022.79 1023.06 1023.31
1009.64 1009.68 1009.81 1010.05 1010.38 1010.82 1011.35 1011.95 1012.59 1013.26 1013.93 1014.57 1015.17 1015.70 1016.15 1016.53 1016.83 1017.06 1017.24 1017.37 1017.48 1017.58 1017.68 1017.80 1017.94 1018.10 1018.30 1018.52 1018.76 1019.02 1019.29 1019.57 1019.87 1020.17 1020.47 1020.79 1021.10 1021.42 1021.74 1022.05 1022.34 1022.62 1022.87 1023.09
1010.90 1011.03 1011.24 1011.52 1011.86 1012.28 1012.75 1013.27 1013.80 1014.34 1014.86 1015.35 1015.79 1016.17 1016.48 1016.74 1016.95 1017.11 1017.24 1017.35 1017.46 1017.57 1017.71 1017.86 1018.05 1018.25 1018.48 1018.72 1018.97 1019.23 1019.49 1019.74 1020.00 1020.25 1020.51 1020.77 1021.04 1021.31 1021.58 1021.85 1022.12 1022.38 1022.61 1022.82
Thickness
5790 5804 5809 5805 5804 5807 5802 5801 5793 5794 5792 5795 5799 5799 5799 5800 5800 5796 5791 5788 5784 5780 5776 5774 5771 5768 5766 5764 5761 5758 5753 5748 5744 5742 5740 5738 5736 5734 5732 5730 5728 5725 5723 5721
5775 5794 5801 5800 5806 5809 5807 5808 5804 5798 5792 5801 5798 5802 5798 5796 5795 5790 5786 5784 5781 5777 5773 5770 5767 5765 5763 5760 5758 5755 5750 5747 5743 5740 5738 5735 5733 5730 5727 5725 5723 5721 5718 5716
5760 5783 5786 5779 5798 5804 5805 5811 5807 5793 5792 5798 5791 5790 5789 5791 5791 5787 5784 5780 5776 5773 5770 5767 5765 5763 5759 5757 5755 5751 5747 5744 5741 5737 5734 5731 5730 5726 5723 5720 5718 5715 5712 5710
5754 5762 5747 5784 5817 5815 5807 5807 5809 5799 5795 5792 5788 5787 5789 5790 5787 5783 5781 5777 5773 5770 5767 5765 5763 5760 5758 5755 5751 5747 5743 5739 5736 5733 5730 5727 5724 5720 5717 5714 5711 5708 5704 5701
5745 5744 5756 5785 5805 5808 5798 5793 5802 5795 5790 5787 5787 5781 5776 5782 5783 5779 5776 5773 5770 5768 5764 5761 5758 5755 5752 5748 5745 5741 5737 5734 5731 5728 5724 5721 5718 5714 5711 5708 5703 5699 5695 5692
5738 5733 5737 5769 5797 5810 5798 5775 5792 5788 5782 5780 5778 5761 5755 5768 5771 5770 5768 5766 5763 5761 5758 5753 5751 5749 5744 5740 5736 5732 5730 5727 5725 5722 5718 5715 5711 5708 5704 5700 5694 5690 5686 5682
5729 5730 5745 5772 5785 5788 5757 5755 5780 5780 5777 5772 5762 5760 5758 5761 5760 5759 5757 5755 5754 5751 5747 5743 5742 5740 5734 5731 5727 5725 5722 5720 5716 5713 5710 5707 5703 5700 5695 5690 5684 5679 5675 5670
5723 5722 5727 5761 5765 5751 5746 5764 5769 5768 5767 5760 5756 5754 5754 5751 5748 5747 5745 5744 5742 5739 5736 5734 5733 5730 5725 5720 5719 5717 5714 5710 5706 5703 5701 5697 5693 5689 5685 5680 5674 5668 5663 5658
5724 5723 5734 5747 5748 5750 5755 5752 5755 5756 5755 5751 5747 5745 5743 5740 5738 5736 5734 5733 5731 5728 5724 5722 5721 5719 5714 5711 5709 5707 5702 5698 5694 5691 5688 5686 5682 5678 5674 5670 5665 5659 5653 5647
5716 5719 5728 5735 5740 5743 5746 5744 5747 5747 5746 5744 5738 5734 5731 5729 5726 5725 5723 5722 5720 5716 5712 5709 5708 5707 5704 5702 5700 5696 5691 5686 5682 5678 5674 5671 5668 5665 5662 5659 5655 5649 5643 5637
5702 5709 5716 5720 5726 5730 5734 5737 5737 5737 5736 5733 5728 5723 5720 5717 5715 5713 5711 5710 5707 5704 5700 5697 5696 5694 5692 5691 5688 5683 5679 5675 5670 5665 5660 5655 5650 5646 5645 5642 5642 5639 5634 5629
5687 5700 5702 5701 5712 5719 5720 5721 5722 5722 5720 5719 5717 5712 5709 5706 5704 5701 5698 5697 5694 5691 5689 5686 5684 5682 5679 5678 5676 5673 5668 5663 5659 5653 5648 5643 5638 5630 5625 5625 5624 5623 5621 5617
5689 5698 5700 5702 5706 5709 5709 5710 5710 5708 5706 5704 5702 5701 5697 5693 5691 5689 5686 5684 5681 5679 5677 5674 5672 5669 5667 5666 5664 5661 5657 5653 5648 5643 5637 5633 5628 5623 5616 5609 5606 5604 5603 5600
5683 5687 5687 5689 5692 5696 5697 5698 5698 5696 5694 5692 5689 5687 5684 5681 5678 5676 5673 5671 5670 5667 5665 5662 5660 5658 5656 5654 5652 5649 5645 5641 5637 5633 5629 5624 5619 5614 5609 5604 5597 5589 5584 5582
5675 5679 5678 5681 5682 5683 5684 5684 5682 5680 5678 5676 5675 5673 5671 5667 5664 5662 5661 5660 5658 5655 5653 5651 5648 5645 5644 5643 5641 5638 5635 5630 5626 5623 5618 5613 5609 5604 5599 5594 5587 5580 5574 5569
5667 5669 5670 5670 5669 5669 5670 5670 5668 5665 5664 5662 5661 5659 5657 5655 5652 5650 5648 5647 5645 5642 5640 5638 5636 5634 5633 5632 5630 5627 5623 5620 5616 5612 5607 5603 5598 5594 5589 5584 5579 5573 5568 5564
5653 5654 5655 5656 5657 5657 5658 5658 5656 5654 5652 5649 5647 5646 5644 5642 5639 5637 5635 5634 5632 5629 5628 5626 5624 5624 5623 5621 5620 5617 5613 5609 5606 5603 5598 5593 5589 5586 5582 5576 5571 5566 5560 5556
5648 5648 5649 5649 5648 5648 5648 5647 5645 5644 5640 5638 5636 5634 5631 5630 5627 5624 5622 5621 5619 5616 5615 5615 5614 5614 5613 5612 5610 5608 5605 5601 5597 5594 5589 5585 5582 5578 5575 5570 5564 5559 5553 5548
5639 5639 5640 5640 5640 5639 5637 5635 5633 5631 5629 5627 5624 5622 5620 5618 5616 5613 5611 5610 5608 5605 5604 5604 5604 5604 5603 5602 5601 5598 5596 5593 5589 5585 5582 5577 5575 5571 5567 5563 5558 5553 5548 5543
5628 5629 5630 5630 5630 5628 5625 5624 5622 5619 5616 5615 5613 5610 5608 5606 5605 5604 5602 5600 5599 5598 5597 5596 5595 5595 5594 5593 5592 5591 5589 5587 5583 5579 5576 5572 5569 5564 5561 5557 5552 5546 5541 5536
5617 5618 5618 5617 5616 5615 5614 5613 5611 5608 5606 5605 5603 5602 5599 5598 5597 5596 5594 5591 5589 5589 5588 5587 5588 5587 5587 5586 5585 5585 5583 5580 5577 5573 5570 5566 5562 5558 5554 5549 5544 5539 5534 5529
5606 5606 5607 5606 5605 5603 5603 5603 5602 5599 5597 5596 5595 5593 5592 5590 5589 5588 5587 5585 5582 5581 5582 5581 5581 5579 5579 5580 5581 5579 5576 5573 5570 5567 5563 5559 5556 5551 5547 5542 5538 5533 5528 5523
5596 5596 5596 5596 5595 5594 5593 5592 5592 5591 5589 5588 5587 5587 5586 5585 5584 5582 5578 5577 5577 5574 5576 5575 5573 5572 5571 5574 5575 5573 5570 5566 5563 5559 5556 5553 5549 5545 5541 5536 5532 5527 5522 5518
5587 5587 5588 5588 5587 5586 5583 5583 5582 5582 5581 5581 5581 5581 5580 5579 5577 5577 5574 5571 5571 5570 5570 5567 5566 5566 5566 5568 5567 5565 5562 5558 5556 5553 5549 5547 5544 5540 5535 5531 5527 5522 5517 5513
5580 5580 5580 5580 5579 5578 5577 5576 5576 5575 5576 5575 5576 5576 5576 5575 5574 5572 5570 5567 5564 5564 5563 5560 5560 5559 5560 5561 5559 5557 5554 5551 5549 5546 5544 5540 5537 5533 5529 5525 5521 5516 5512 5508
5574 5574 5574 5575 5575 5574 5573 5573 5572 5572 5572 5571 5571 5571 5570 5569 5568 5566 5564 5562 5561 5558 5558 5556 5555 5554 5555 5553 5551 5549 5547 5544 5542 5540 5537 5534 5530 5526 5522 5518 5514 5511 5507 5503
5570 5569 5569 5570 5570 5571 5572 5572 5571 5570 5570 5570 5568 5567 5566 5565 5563 5561 5560 5557 5556 5555 5553 5553 5552 5551 5549 5547 5545 5543 5541 5539 5536 5533 5531 5527 5524 5520 5517 5512 5509 5506 5502 5498